Al Bitayyah, Egypt

8:11 PM EET on June 23, 2017 (GMT +0200)
Al Bitayyah

Weather History for 62366 - November, 2012

Change the Weather History Date:

Tuesday, November 27, 2012

  Actual Average Record
Temperature  
Mean Temperature 64 °F -  
Max Temperature 73 °F 67 °F - ()
Min Temperature 56 °F 51 °F - ()
Growing Degree Days 14 (Base 50)    
Moisture  
Dew Point 53 °F    
Average Humidity 66    
Maximum Humidity 82    
Minimum Humidity 50    
Precipitation  
Precipitation 0.00 in 0.01 in - ()
Sea Level Pressure  
Sea Level Pressure 30.07 in    
Wind  
Wind Speed 5 mph ()    
Max Wind Speed 15 mph    
Max Gust Speed -    
Visibility 3.7 miles    
Events      
T = Trace of Precipitation, MM = Missing Value Source: Averaged Metar Reports

Daily Weather History Graph

Daily Weather History Graph

Search for Another Location

Airport or City:

Trip Planner

Search our weather history database for the weather conditions in past years. The results will help you decide how hot, cold, wet, or windy it might be!

Date:

Astronomy

Nov. 27, 2012 Rise Set
Actual Time 6:29 AM EET 4:54 PM EET
Civil Twilight 6:03 AM EET 5:20 PM EET
Nautical Twilight 5:34 AM EET 5:49 PM EET
Astronomical Twilight 5:05 AM EET 6:18 PM EET
Moon 4:10 PM EET (11/27) 5:19 AM EET (11/27)
Length of Visible Light 11h 16m
Length of Day
10h 24m
Waxing Gibbous, 99% of the Moon is Illuminated
Nov 27
Waxing Gibbous
Nov 28
Full
Dec 6
Last Quarter
Dec 13
New
Dec 20
First Quarter

Hourly Weather History & Observations

Time (EET) Temp. Dew Point Humidity Pressure Visibility Wind Dir Wind Speed Gust Speed Precip Events Conditions
12:00 AM 60.8 °F 48.2 °F 63% 30.06 in - NE 2.3 mph - N/A   Clear
12:30 AM 60.8 °F 50.0 °F 68% 30.06 in - ENE 2.3 mph - N/A   Clear
1:00 AM 60.8 °F 50.0 °F 68% 30.06 in - East 2.3 mph - N/A   Clear
1:30 AM 60.8 °F 51.8 °F 72% 30.06 in - ESE 3.5 mph - N/A   Clear
2:00 AM 60 °F 50 °F 61% 30.08 in 6 mi SE 4.6 mph - -  
2:00 AM 60.8 °F 51.8 °F 72% 30.06 in - SE 4.6 mph - N/A   Clear
2:30 AM 59.0 °F 50.0 °F 72% 30.06 in - SW 2.3 mph - N/A   Clear
3:00 AM 59.0 °F 50.0 °F 72% 30.06 in - South 2.3 mph - N/A   Clear
3:30 AM 59.0 °F 51.8 °F 77% 30.06 in - NNW 2.3 mph - N/A   Clear
4:00 AM 60.8 °F 51.8 °F 72% 30.06 in - NNW 3.5 mph - N/A   Clear
4:30 AM 57.2 °F 50.0 °F 77% 30.06 in - NNE 1.2 mph - N/A   Clear
5:00 AM 59.0 °F 50.0 °F 72% 30.06 in 3.7 mi East 3.5 mph - N/A   Unknown
5:30 AM 59.0 °F 50.0 °F 72% 30.06 in 3.7 mi NE 2.3 mph - N/A   Unknown
6:00 AM 57.2 °F 50.0 °F 77% 30.06 in 3.7 mi Calm Calm - N/A   Unknown
6:30 AM 57.2 °F 51.8 °F 82% 30.06 in 2.5 mi SSE 1.2 mph - N/A   Mist
7:00 AM 57.2 °F 50.0 °F 77% 30.06 in 1.2 mi ESE 1.2 mph - N/A   Mist
7:30 AM 59.0 °F 51.8 °F 77% 30.09 in 1.2 mi SE 2.3 mph - N/A   Mist
8:00 AM 62 °F 53 °F 66% 30.10 in 1 mi Calm Calm - -   Mist
8:00 AM 62.6 °F 53.6 °F 72% 30.09 in 1.2 mi Calm Calm - N/A   Mist
8:30 AM 66.2 °F 55.4 °F 68% 30.09 in 1.2 mi Calm Calm - N/A   Mist
9:00 AM 66.2 °F 53.6 °F 64% 30.09 in 1.2 mi Calm Calm - N/A   Haze
9:30 AM 66.2 °F 53.6 °F 64% 30.09 in 1.2 mi North 3.5 mph - N/A   Haze
10:00 AM 66.2 °F 53.6 °F 64% 30.09 in 1.2 mi North 5.8 mph - N/A   Haze
10:30 AM 68.0 °F 55.4 °F 64% 30.09 in 3.7 mi North 8.1 mph - N/A   Unknown
11:00 AM 68.0 °F 59.0 °F 73% 30.09 in 3.7 mi North 5.8 mph - N/A   Unknown
11:30 AM 69.8 °F 53.6 °F 56% 30.06 in 3.7 mi North 9.2 mph - N/A   Unknown
12:00 PM 69.8 °F 53.6 °F 56% 30.06 in 3.7 mi North 9.2 mph - N/A   Unknown
12:30 PM 69.8 °F 53.6 °F 56% 30.06 in - North 9.2 mph - N/A   Clear
1:00 PM 69.8 °F 53.6 °F 56% 30.04 in - North 9.2 mph - N/A   Clear
1:30 PM 69.8 °F 53.6 °F 56% 30.04 in - NNW 9.2 mph - N/A   Clear
2:00 PM 72 °F 57 °F 50% 30.04 in 6 mi NNW 6.9 mph - -   Mostly Cloudy
2:00 PM 71.6 °F 57.2 °F 60% 30.04 in - NNW 6.9 mph - N/A   Clear
2:30 PM 71.6 °F 53.6 °F 53% 30.04 in - North 9.2 mph - N/A   Clear
3:00 PM 69.8 °F 51.8 °F 53% 30.04 in - North 12.7 mph - N/A   Clear
3:30 PM 69.8 °F 53.6 °F 56% 30.04 in - NNW 11.5 mph - N/A   Clear
4:00 PM 69.8 °F 53.6 °F 56% 30.04 in 6.2 mi North 15.0 mph - N/A   Mostly Cloudy
4:30 PM 69.8 °F 53.6 °F 56% 30.04 in 6.2 mi North 12.7 mph - N/A   Mostly Cloudy
5:00 PM 69.8 °F 55.4 °F 60% 30.04 in 6.2 mi North 12.7 mph - N/A   Scattered Clouds
5:30 PM 68.0 °F 55.4 °F 64% 30.04 in 6.2 mi North 11.5 mph - N/A   Scattered Clouds
6:00 PM 68.0 °F 53.6 °F 60% 30.06 in 6.2 mi NNE 13.8 mph - N/A   Partly Cloudy
6:30 PM 68.0 °F 53.6 °F 60% 30.06 in 6.2 mi NNE 13.8 mph - N/A   Partly Cloudy
7:00 PM 66.2 °F 53.6 °F 64% 30.06 in - NNE 11.5 mph - N/A   Clear
7:30 PM 66.2 °F 53.6 °F 64% 30.06 in - NNE 11.5 mph - N/A   Clear
8:00 PM 66 °F 54 °F 57% 30.10 in 6 mi NNE 8.1 mph - -  
8:00 PM 66.2 °F 53.6 °F 64% 30.09 in - NNE 8.1 mph - N/A   Clear
8:30 PM 66.2 °F 53.6 °F 64% 30.09 in - NNE 8.1 mph - N/A   Clear
9:00 PM 62.6 °F 51.8 °F 68% 30.09 in - ENE 5.8 mph - N/A   Clear
9:30 PM 60.8 °F 51.8 °F 72% 30.09 in - ENE 4.6 mph - N/A   Clear
10:00 PM 60.8 °F 53.6 °F 77% 30.09 in - ENE 3.5 mph - N/A   Clear
10:30 PM 60.8 °F 53.6 °F 77% 30.09 in - East 6.9 mph - N/A   Clear
11:00 PM 60.8 °F 53.6 °F 77% 30.09 in - East 6.9 mph - N/A   Clear
11:30 PM 60.8 °F 53.6 °F 77% 30.09 in - East 6.9 mph - N/A   Clear